Location: Newark
(48.5156°N, 1.8989°W)
Time: 16:23:09
(UTC+00:00)

A-11 Canister half - All Passes

Search period start: 15 November 2019 00:00
Search period end: 25 November 2019 00:00
Orbit: 1514 x 1686 km, 47.2° (Epoch: 13 November)

Date Brightness Start Highest point End Pass type
(mag) Time Alt. Az. Time Alt. Az. Time Alt. Az.
15 Nov - 00:07:00 10° WNW 00:17:00 65° SSW 00:26:42 10° SE night (unlit)
15 Nov - 02:12:35 10° W 02:20:41 29° SW 02:28:36 10° S night (unlit)
15 Nov - 17:32:19 10° S 17:40:29 29° SE 17:48:44 10° E visible
15 Nov - 19:34:16 10° SW 19:44:15 65° SSE 19:54:14 10° ENE visible
15 Nov - 21:38:54 10° W 21:49:09 84° S 21:59:15 10° E visible
15 Nov - 23:44:02 10° WNW 23:54:04 67° SSW 00:03:50 10° SE visible
16 Nov - 01:49:32 10° WNW 01:57:51 31° SW 02:05:58 10° SSE night (unlit)
16 Nov - 17:09:41 10° S 17:17:39 28° SE 17:25:40 10° E visible
16 Nov - 19:11:24 10° SW 19:21:20 63° SSE 19:31:18 10° ENE visible
16 Nov - 21:15:57 10° W 21:26:12 84° S 21:36:18 10° E visible
16 Nov - 23:21:04 10° WNW 23:31:09 68° SSW 23:40:58 10° ESE visible
17 Nov - 01:26:29 10° WNW 01:35:01 33° SW 01:43:20 10° SSE night (unlit)
17 Nov - 16:47:04 10° S 16:54:48 26° SE 17:02:36 10° E visible
17 Nov - 18:48:32 10° SW 18:58:24 61° SSE 19:08:20 10° ENE visible
17 Nov - 20:52:59 10° W 21:03:14 84° S 21:13:21 10° E visible
17 Nov - 22:58:06 10° W 23:08:13 70° SSW 23:18:05 10° ESE visible
18 Nov - 01:03:28 10° WNW 01:12:10 35° SW 01:20:40 10° SSE night (unlit)
18 Nov - 16:24:31 10° S 16:31:58 24° SE 16:39:31 10° E daylight
18 Nov - 18:25:40 10° SW 18:35:29 59° SSE 18:45:23 10° ENE visible
18 Nov - 20:30:03 10° W 20:40:16 84° S 20:50:25 10° E visible
18 Nov - 22:35:08 10° W 22:45:17 72° SSW 22:55:12 10° ESE visible
19 Nov - 00:40:27 10° WNW 00:49:19 36° SW 00:57:59 10° SSE night (unlit)
19 Nov - 16:01:58 10° S 16:09:09 23° SE 16:16:24 10° E daylight
19 Nov - 18:02:49 10° SW 18:12:34 57° SSE 18:22:25 10° ENE visible
19 Nov - 20:07:05 10° W 20:17:17 83° S 20:27:28 10° E visible
19 Nov - 22:12:10 10° W 22:22:20 74° SSW 22:32:18 10° ESE visible
20 Nov - 00:17:27 10° WNW 00:26:27 38° SW 00:35:16 10° SSE night (unlit)
20 Nov - 02:27:57 10° WSW 02:29:04 10° WSW 02:30:10 10° SW night (unlit)
20 Nov - 15:39:28 10° S 15:46:19 21° SE 15:53:16 10° E daylight
20 Nov - 17:39:59 10° SW 17:49:40 55° SSE 17:59:27 10° ENE visible
20 Nov - 19:44:08 10° WSW 19:54:20 83° S 20:04:31 10° E visible
20 Nov - 21:49:13 10° W 21:59:23 75° SSW 22:09:24 10° ESE visible
20 Nov - 23:54:26 10° WNW 00:03:35 40° SW 00:12:33 10° SSE visible
21 Nov - 02:03:26 10° WSW 02:06:17 11° WSW 02:09:08 10° SW night (unlit)
21 Nov - 15:17:00 10° SSE 15:23:31 20° SE 15:30:05 10° E daylight
21 Nov - 17:17:09 10° SW 17:26:45 53° SSE 17:36:29 10° ENE visible
21 Nov - 19:21:12 10° WSW 19:31:22 82° S 19:41:34 10° E visible
21 Nov - 21:26:16 10° W 21:36:27 76° SSW 21:46:29 10° ESE visible
21 Nov - 23:31:26 10° WNW 23:40:43 42° SW 23:49:48 10° SSE visible
22 Nov - 01:39:40 10° W 01:43:30 13° WSW 01:47:19 10° SW night (unlit)
22 Nov - 14:54:35 10° SSE 15:00:42 18° SE 15:06:53 10° E daylight
22 Nov - 16:54:21 10° SW 17:03:51 51° SSE 17:13:31 10° ENE visible
22 Nov - 18:58:15 10° WSW 19:08:24 81° S 19:18:36 10° E visible
22 Nov - 21:03:18 10° W 21:13:29 78° SSW 21:23:34 10° ESE visible
22 Nov - 23:08:26 10° WNW 23:17:50 44° SW 23:27:03 10° SSE visible
23 Nov - 01:16:08 10° W 01:20:43 14° WSW 01:25:16 10° SSW night (unlit)
23 Nov - 14:32:13 10° SSE 14:37:54 17° SE 14:43:38 10° E daylight
23 Nov - 16:31:33 10° SW 16:40:58 48° SE 16:50:33 10° ENE daylight
23 Nov - 18:35:19 10° WSW 18:45:27 80° SSE 18:55:39 10° E visible
23 Nov - 20:40:20 10° W 20:50:32 79° SSW 21:00:39 10° ESE visible
23 Nov - 22:45:27 10° WNW 22:54:57 46° SW 23:04:16 10° SSE visible
24 Nov - 00:52:43 10° W 00:57:55 15° SW 01:03:04 10° SSW night (unlit)
24 Nov - 14:09:56 10° SSE 14:15:06 16° SE 14:20:19 10° E daylight
24 Nov - 16:08:46 10° SSW 16:18:04 46° SE 16:27:34 10° ENE daylight
24 Nov - 18:12:23 10° WSW 18:22:30 79° SSE 18:32:41 10° E visible
24 Nov - 20:17:22 10° W 20:27:35 80° S 20:37:43 10° ESE visible
24 Nov - 22:22:29 10° WNW 22:32:04 48° SW 22:41:29 10° SE visible
